Flood watches and warnings may be in place at some locations. For the latest rainfall, river conditions, flood watches and warnings see BoM.

Forecasts are only available for sites displaying the forecast symbol.

Some water levels are actually in metres AHD (Australian Height Datum), click individual sites for more details.

Scroll for more >

River gauges, storages, and weirs in the Murray–Darling Basin

Type Locationsort descending River Water level Flow Volume Release Water temp Salinity Rainfall
River Gauge Albury (Union Bridge) Murray 3.97 m 17/08/2022 22:00 Not measured Not measured Not measured 10.7°C 17/08/2022 22:00 59.5 μS/cm 17/08/2022 22:00 Not measured Full data
River Gauge Balranald Murrumbidgee 6.12 m 17/08/2022 21:00 12038 ML/Day 17/08/2022 21:00 Not measured Not measured 11.8°C 17/08/2022 21:00 139.9 μS/cm 17/08/2022 21:00 Not measured Full data
River Gauge Bandiana Kiewa 2.87 m 17/08/2022 21:00 4571 ML/Day 17/08/2022 21:00 Not measured Not measured 9.6°C 17/08/2022 21:00 48.7 μS/cm 17/08/2022 21:00 Not measured Full data
River Gauge Barmah Murray 3.7 m 17/08/2022 21:00 13072 ML/Day 17/08/2022 21:00 Not measured Not measured Not measured Not measured Not measured Full data
River Gauge Biggara Murray 1.31 m 17/08/2022 22:00 3810 ML/Day 17/08/2022 22:00 Not measured Not measured 9.5°C 17/08/2022 22:00 17.4 μS/cm 17/08/2022 8:00 0.00 mm 17/08/2022 22:00 Full data
River Gauge Bringenbrong Bridge Murray 2.32 m 17/08/2022 21:00 10225 ML/Day 17/08/2022 21:00 Not measured Not measured Not measured Not measured Not measured Full data
River Gauge Burtundy Darling 6.69 m 17/08/2022 21:00 16565 ML/Day 17/08/2022 21:00 Not measured Not measured 12.7°C 17/08/2022 21:00 206.9 μS/cm 17/08/2022 8:00 Not measured Full data
River Gauge Colemans Mitta 2.46 m 17/08/2022 21:00 6708 ML/Day 17/08/2022 21:00 Not measured Not measured 9.2°C 17/08/2022 21:00 57.9 μS/cm 17/08/2022 21:00 Not measured Full data
River Gauge Colemans Mitta 2.46 m 17/08/2022 21:00 6708 ML/Day 17/08/2022 21:00 Not measured Not measured 9.2°C 17/08/2022 21:00 57.9 μS/cm 17/08/2022 21:00 Not measured Full data
River Gauge Colignan Murray 4.93 m 17/08/2022 21:00 31998 ML/Day 17/08/2022 21:00 Not measured Not measured 11.8°C 17/08/2022 21:00 131.8 μS/cm 17/08/2022 21:00 Not measured Full data
River Gauge Corowa Murray 5.41 m 17/08/2022 22:00 39731 ML/Day 17/08/2022 22:00 Not measured Not measured 10.6°C 17/08/2022 22:00 59.4 μS/cm 17/08/2022 22:00 Not measured Full data
Storage Dartmouth Dam Mitta 484.68 m 17/08/2022 21:00 Not measured 3770 GL 17/08/2022 21:00 Not measured Not measured Not measured Not measured Full data
Storage Dartmouth Dam Mitta 484.68 m 17/08/2022 21:00 Not measured 3770 GL 17/08/2022 21:00 Not measured Not measured Not measured Not measured Full data
River Gauge Doctors Point Murray 4.8 m 17/08/2022 22:00 39766 ML/Day 17/08/2022 22:00 Not measured Not measured 10.6°C 17/08/2022 22:00 47.8 μS/cm 17/08/2022 22:00 Not measured Full data
River Gauge Echuca Wharf Murray 88.18 m 17/08/2022 8:00 Not measured Not measured Not measured Not measured Not measured Not measured Full data
River Gauge Edward Escape Wakool 0.02 m 17/08/2022 21:00 0.00 ML/Day 17/08/2022 21:00 Not measured Not measured 12°C 17/08/2022 21:00 62 μS/cm 17/08/2022 8:00 Not measured Full data
River Gauge Edward River Offtake Murray 2.81 m 17/08/2022 22:00 2252 ML/Day 17/08/2022 22:00 Not measured Not measured 11.2°C 17/08/2022 21:00 54.3 μS/cm 17/08/2022 8:00 Not measured Full data
Weirs Euston Weir Downstream Murray 46.27 m 17/08/2022 21:00 30765 ML/Day 17/08/2022 21:00 Not measured Not measured 11.4°C 17/08/2022 21:00 108.9 μS/cm 17/08/2022 21:00 Not measured Full data
Weirs Euston Weir Upstream Murray 47.2 m 17/08/2022 9:00 Not measured 32 GL 17/08/2022 8:00 Not measured Not measured Not measured 145.9 mm 5/03/2020 9:00 Full data
River Gauge Flow to South Australia Murray Not measured Not measured Not measured 53582 ML/d17/08/2022 8:00 Not measured Not measured Not measured Full data
River Gauge Frenchman Creek Murray 27.98 m 17/08/2022 8:00 Not measured Not measured 1053 ML/d17/08/2022 8:00 Not measured Not measured Not measured Full data
River Gauge Gulpa Creek Offtake Murray 3.24 m 17/08/2022 21:00 947 ML/Day 17/08/2022 21:00 Not measured Not measured Not measured Not measured Not measured Full data
River Gauge Hinnomunjie Mitta 1.28 m 17/08/2022 21:00 2472 ML/Day 17/08/2022 21:00 Not measured Not measured 7.2°C 17/08/2022 21:00 37.1 μS/cm 17/08/2022 21:00 0.00 mm 17/08/2022 21:00 Full data
Storage Hume Dam Murray 191.38 m 17/08/2022 22:00 Not measured 2882 GL 17/08/2022 22:00 35434.9 ML/d17/08/2022 22:00 Not measured Not measured 0.00 mm 17/08/2022 22:00 Full data
River Gauge Jingellic Murray 3.13 m 17/08/2022 21:00 17916 ML/Day 17/08/2022 21:00 Not measured Not measured 9.7°C 17/08/2022 21:00 51 μS/cm 17/08/2022 21:00 0.00 mm 17/08/2022 21:00 Full data
River Gauge Kerang Loddon 0.41 m 17/08/2022 21:00 286 ML/Day 17/08/2022 21:00 Not measured Not measured 11.7°C 17/08/2022 21:00 154.6 μS/cm 17/08/2022 21:00 Not measured Full data
River Gauge Lake Albert Murray 0.91 m 17/08/2022 22:00 Not measured 294 GL 16/08/2022 8:00 Not measured Not measured Not measured Not measured Full data
River Gauge Lake Alexandrina Murray 0.88 m 17/08/2022 22:00 Not measured 1698 GL 17/08/2022 22:00 Not measured Not measured 370.6 μS/cm 17/08/2022 19:00 Not measured Full data
Storage Lake Victoria Murray 24.43 m 17/08/2022 19:00 Not measured 388 GL 17/08/2022 19:00 Not measured 11.7°C 17/08/2022 19:00 185.3 μS/cm 17/08/2022 19:00 Not measured Full data
Weirs Lock 1 Downstream Murray 2.96 m 17/08/2022 19:00 Not measured Not measured 44570.8 ML/d17/08/2022 8:00 Not measured Not measured Not measured Full data
Weirs Lock 1 Upstream Murray 3.3 m 17/08/2022 19:00 Not measured Not measured Not measured 12.2°C 17/08/2022 19:00 191.7 μS/cm 17/08/2022 19:00 Not measured Full data
Weirs Lock 2 Downstream Murray 6.42 m 17/08/2022 20:00 Not measured Not measured Not measured Not measured Not measured Not measured Full data
Weirs Lock 2 Upstream Murray 6.69 m 17/08/2022 20:00 Not measured Not measured Not measured 12°C 17/08/2022 20:00 201.7 μS/cm 17/08/2022 20:00 Not measured Full data
Weirs Lock 3 Downstream Murray 9.21 m 17/08/2022 19:00 Not measured Not measured Not measured Not measured Not measured Not measured Full data
Weirs Lock 3 Upstream Murray 10.03 m 17/08/2022 19:00 Not measured Not measured Not measured Not measured Not measured Not measured Full data
Weirs Lock 4 Downstream Murray 13.57 m 17/08/2022 19:00 Not measured Not measured Not measured Not measured Not measured Not measured Full data
Weirs Lock 4 Upstream Murray 13.63 m 17/08/2022 19:00 Not measured Not measured Not measured Not measured Not measured Not measured Full data
Weirs Lock 5 Downstream Murray 15.75 m 17/08/2022 19:00 Not measured Not measured Not measured Not measured Not measured Not measured Full data
Weirs Lock 5 Upstream Murray 16.79 m 17/08/2022 19:00 Not measured Not measured Not measured 12.1°C 17/08/2022 19:00 186 μS/cm 17/08/2022 19:00 Not measured Full data
Weirs Lock 6 Downstream Murray 19.18 m 17/08/2022 19:00 Not measured Not measured Not measured Not measured Not measured Not measured Full data
Weirs Lock 6 Upstream Murray 19.55 m 17/08/2022 19:00 Not measured Not measured Not measured 12.2°C 17/08/2022 19:00 182.4 μS/cm 17/08/2022 19:00 Not measured Full data
Weirs Lock 7 Downstream Murray 23.59 m 29/06/2022 13:00 Not measured Not measured Not measured Not measured Not measured Not measured Full data
Weirs Lock 7 Upstream Murray 24.04 m 17/08/2022 19:00 Not measured Not measured Not measured 12.2°C 17/08/2022 19:00 176.9 μS/cm 17/08/2022 19:00 Not measured Full data
Weirs Lock 8 Upstream Murray 25.61 m 17/08/2022 19:00 Not measured Not measured Not measured 12.3°C 17/08/2022 19:00 167.4 μS/cm 17/08/2022 19:00 Not measured Full data
Weirs Lock 9 Downstream Murray 27.36 m 17/08/2022 19:00 Not measured Not measured Not measured Not measured Not measured Not measured Full data
Weirs Lock 9 Upstream Murray 27.42 m 17/08/2022 19:00 Not measured Not measured Not measured 12.3°C 17/08/2022 19:00 173.8 μS/cm 17/08/2022 19:00 Not measured Full data
River Gauge McCoy Bridge Goulburn 3.32 m 17/08/2022 21:00 4500 ML/Day 17/08/2022 21:00 Not measured Not measured 10.7°C 17/08/2022 21:00 148.7 μS/cm 17/08/2022 21:00 Not measured Full data
Storage Menindee Lakes Darling Not measured Not measured 1986 GL 17/08/2022 9:00 Not measured Not measured Not measured Not measured Full data
Weirs Mildura Weir downstream Murray 32.6 m 17/08/2022 21:00 Not measured Not measured Not measured 11.6°C 17/08/2022 21:00 104.8 μS/cm 17/08/2022 21:00 Not measured Full data
River Gauge Morgan Downstream Murray Not measured Not measured Not measured 39350.4 ML/d21/07/2022 10:00 Not measured 197.4 μS/cm 17/08/2022 17:00 Not measured Full data
River Gauge Mulwala Canal Murray Not measured Not measured Not measured 2943.8 ML/d17/08/2022 9:00 Not measured Not measured Not measured Full data
River Gauge Mundoo Barrage Murray 0.81 m 17/08/2022 8:00 Not measured Not measured Not measured Not measured Not measured Not measured Full data
River Gauge Murray Bridge Murray 0.83 m 17/08/2022 20:00 Not measured Not measured Not measured 12.2°C 17/08/2022 20:00 192.8 μS/cm 17/08/2022 20:00 Not measured Full data
River Gauge Peechelba Ovens 129.94 m 17/08/2022 21:00 13578 ML/Day 17/08/2022 21:00 Not measured Not measured 9.7°C 17/08/2022 21:00 45.9 μS/cm 17/08/2022 21:00 Not measured Full data
River Gauge Pinegrove Murray 2.45 m 17/08/2022 22:00 2964 ML/Day 17/08/2022 22:00 Not measured Not measured 9.7°C 17/08/2022 22:00 55.9 μS/cm 17/08/2022 22:00 0.00 mm 17/08/2022 22:00 Full data
River Gauge Redcliffs Murray Not measured Not measured Not measured Not measured Not measured 107.8 μS/cm 17/08/2022 8:00 Not measured Full data
River Gauge Rochester Campaspe 2.03 m 17/08/2022 21:00 285 ML/Day 17/08/2022 22:00 Not measured Not measured 10.5°C 17/08/2022 21:00 565.7 μS/cm 17/08/2022 21:00 0.00 mm 17/08/2022 21:00 Full data
River Gauge Rufus River Murray 23.98 m 17/08/2022 8:00 Not measured Not measured 2576.7 ML/d17/08/2022 8:00 Not measured 205.1 μS/cm 17/08/2022 17:00 Not measured Full data
Weirs Steven's Weir Downstream Edward 4.1 m 17/08/2022 21:00 6845 ML/Day 17/08/2022 21:00 Not measured Not measured 11°C 17/08/2022 21:00 60.3 μS/cm 17/08/2022 8:00 Not measured Full data
Weirs Steven's Weir Upstream Edward 4.57 m 17/08/2022 22:00 Not measured Not measured Not measured Not measured Not measured Not measured Full data
River Gauge Stoney Crossing Murray 2.09 m 17/08/2022 21:00 2328 ML/Day 17/08/2022 8:00 Not measured 976.2 ML/d14/01/2022 7:45 12°C 17/08/2022 21:00 69.1 μS/cm 17/08/2022 21:00 Not measured Full data
River Gauge Swan Hill Murray 2.44 m 17/08/2022 21:00 14152 ML/Day 17/08/2022 21:00 Not measured Not measured 11°C 17/08/2022 21:00 85.3 μS/cm 17/08/2022 21:00 Not measured Full data
River Gauge Tallandoon Mitta 3.3 m 17/08/2022 21:00 9344 ML/Day 17/08/2022 21:00 Not measured Not measured 9.9°C 17/08/2022 21:00 46.5 μS/cm 17/08/2022 21:00 Not measured Full data
River Gauge Tallandoon Mitta 3.3 m 17/08/2022 21:00 9344 ML/Day 17/08/2022 21:00 Not measured Not measured 9.9°C 17/08/2022 21:00 46.5 μS/cm 17/08/2022 21:00 Not measured Full data
River Gauge Tauwitchere Barrage Murray 0.81 m 17/08/2022 19:00 Not measured Not measured Not measured Not measured Not measured Not measured Full data
River Gauge Tocumwal Murray 5.29 m 17/08/2022 21:00 41166 ML/Day 17/08/2022 21:00 Not measured Not measured 10.7°C 17/08/2022 21:00 44.3 μS/cm 17/08/2022 21:00 Not measured Full data
River Gauge Torrumbarry Headworks Murray 85.95 m 17/08/2022 21:00 Not measured Not measured 2138.7 ML/d17/08/2022 21:00 Not measured Not measured Not measured Full data
Weirs Torrumbarry Weir Downstream Murray 4.11 m 17/08/2022 21:00 13914 ML/Day 17/08/2022 21:00 Not measured Not measured 11.1°C 17/08/2022 21:00 80 μS/cm 17/08/2022 21:00 Not measured Full data
Weirs Torrumbarry Weir Upstream Murray 85.81 m 17/08/2022 21:00 Not measured 35 GL 17/08/2022 9:00 Not measured 11°C 17/08/2022 9:00 79.6 μS/cm 17/08/2022 18:00 0.00 mm 17/08/2022 9:00 Full data
River Gauge Wakool Canal Wakool 0.44 m 17/08/2022 22:00 Not measured Not measured 100 ML/d17/08/2022 9:00 Not measured Not measured Not measured Full data
River Gauge Wakool Junction Murray 5.56 m 17/08/2022 21:00 19424 ML/Day 17/08/2022 21:00 Not measured Not measured 11.1°C 17/08/2022 21:00 76.9 μS/cm 17/08/2022 21:00 Not measured Full data
River Gauge Weir 32 Upstream Darling 6.5 m 17/08/2022 21:00 21690 ML/Day 17/08/2022 21:00 Not measured Not measured 13.3°C 17/08/2022 21:00 340.3 μS/cm 17/08/2022 21:00 Not measured Full data
Weirs Wentworth Weir Murray 30.53 m 17/08/2022 22:00 Not measured Not measured 51415.9 ML/d17/08/2022 9:00 Not measured 136.0 μS/cm 28/09/2021 7:45 Not measured Full data
River Gauge Wilcania Darling 7.82 m 17/08/2022 21:00 21298 ML/Day 17/08/2022 21:00 Not measured Not measured 13.9°C 17/08/2022 21:00 356.2 μS/cm 17/08/2022 8:00 Not measured Full data
River Gauge Yarrawonga Main Channel Murray 123.05 m 17/08/2022 21:00 Not measured Not measured 334.6 ML/d17/08/2022 21:00 Not measured Not measured Not measured Full data
Weirs Yarrawonga Weir Downstream Murray 4.95 m 17/08/2022 22:00 48108 ML/Day 17/08/2022 22:00 Not measured Not measured 10.7°C 17/08/2022 22:00 64.6 μS/cm 17/08/2022 8:00 Not measured Full data
Weirs Yarrawonga Weir Upstream Murray 124.71 m 17/08/2022 21:00 Not measured Not measured Not measured Not measured Not measured 0.00 mm 17/08/2022 21:00 Full data